Location: Devore Heights
(34.2372°N, 117.4156°W)
Time: 07:27:38
(UTC+00:00)

Vanguard 1 Rocket - Pass Details

Date: 20 September 2024
Orbit: 650 x 4218 km, 34.3° (Epoch: 09 October)

Event Time Altitude Azimuth Distance (km) Brightness Sun altitude
Rises 08:52:52 0° 223° (SW) 4,089 - -51.3°
Reaches altitude 10° 08:55:12 10° 218° (SW) 3,417 - -51.1°
Maximum altitude 09:03:53 51° 144° (SE) 2,466 - -50.1°
Exits shadow 09:07:38 43° 105° (ESE) 3,066 9.9 -49.7°
Drops below altitude 10° 09:20:40 10° 76° (ENE) 6,317 12.0 -48.1°
Sets 09:26:49 0° 72° (ENE) 7,808 12.7 -47.3°
